TimeEST,TemperatureF,Dew PointF,Humidity,Sea Level PressureIn,VisibilityMPH,Wind Direction,Wind SpeedMPH,Gust SpeedMPH,PrecipitationIn,Events,Conditions,WindDirDegrees,DateUTC
12:53 AM,45.0,35.1,68,30.32,10.0,NNE,12.7,-,N/A,,Overcast,30,2014-01-08 05:53:00
1:53 AM,45.0,37.0,74,30.31,10.0,NE,12.7,-,N/A,,Overcast,40,2014-01-08 06:53:00
2:53 AM,45.0,37.9,76,30.29,10.0,NE,10.4,24.2,N/A,,Overcast,40,2014-01-08 07:53:00
3:53 AM,46.0,37.9,73,30.27,10.0,NNE,11.5,18.4,N/A,,Overcast,30,2014-01-08 08:53:00
4:49 AM,46.4,39.2,76,30.26,10.0,NE,13.8,20.7,N/A,,Overcast,40,2014-01-08 09:49:00
4:53 AM,46.0,39.0,76,30.25,10.0,NE,16.1,-,N/A,,Overcast,40,2014-01-08 09:53:00
5:15 AM,46.0,39.0,76,30.26,10.0,NE,12.7,-,N/A,,Overcast,40,2014-01-08 10:15:00
5:53 AM,46.9,39.9,77,30.26,10.0,NE,15.0,-,N/A,,Overcast,40,2014-01-08 10:53:00
6:53 AM,48.0,41.0,77,30.27,10.0,NE,11.5,-,N/A,,Overcast,40,2014-01-08 11:53:00
7:08 AM,48.0,42.1,80,30.28,10.0,NE,11.5,-,N/A,,Overcast,40,2014-01-08 12:08:00
7:53 AM,48.0,44.1,86,30.30,10.0,NNE,8.1,-,0.00,Rain,Light Rain,30,2014-01-08 12:53:00
8:53 AM,48.9,46.9,93,30.33,4.0,NE,9.2,-,0.00,Rain,Light Rain,40,2014-01-08 13:53:00
9:25 AM,50.0,48.9,96,30.34,2.5,NE,9.2,-,0.01,Rain,Light Rain,40,2014-01-08 14:25:00
9:53 AM,51.1,48.9,92,30.33,5.0,NE,13.8,-,0.01,Rain,Light Rain,50,2014-01-08 14:53:00
10:20 AM,53.1,50.0,89,30.34,6.0,NE,13.8,-,0.00,,Overcast,50,2014-01-08 15:20:00
10:53 AM,54.0,52.0,93,30.33,8.0,NE,10.4,-,0.00,,Overcast,50,2014-01-08 15:53:00
11:27 AM,55.9,54.0,93,30.31,4.0,ENE,16.1,-,0.00,Rain,Light Rain,60,2014-01-08 16:27:00
11:53 AM,57.9,55.0,90,30.30,9.0,ENE,16.1,-,0.00,,Overcast,60,2014-01-08 16:53:00
12:53 PM,60.1,55.0,83,30.26,10.0,ENE,18.4,-,N/A,,Overcast,60,2014-01-08 17:53:00
1:53 PM,63.0,55.9,78,30.23,10.0,ENE,16.1,25.3,N/A,,Overcast,70,2014-01-08 18:53:00
2:20 PM,64.0,57.0,78,30.22,10.0,ENE,24.2,32.2,N/A,,Overcast,70,2014-01-08 19:20:00
2:37 PM,64.9,55.9,73,30.22,10.0,ENE,24.2,33.4,0.00,Rain,Light Rain,70,2014-01-08 19:37:00
2:53 PM,64.9,57.0,75,30.21,10.0,East,16.1,28.8,0.00,Rain,Light Rain,80,2014-01-08 19:53:00
3:53 PM,64.9,57.0,75,30.21,10.0,ENE,23.0,27.6,0.00,,Overcast,70,2014-01-08 20:53:00
4:11 PM,64.9,57.9,78,30.22,10.0,East,16.1,-,N/A,,Overcast,80,2014-01-08 21:11:00
4:53 PM,64.9,57.0,75,30.22,10.0,East,16.1,-,N/A,,Overcast,80,2014-01-08 21:53:00
5:35 PM,64.0,57.0,78,30.22,10.0,ENE,17.3,23.0,N/A,,Overcast,70,2014-01-08 22:35:00
5:53 PM,64.0,57.0,78,30.22,10.0,East,15.0,-,N/A,,Overcast,80,2014-01-08 22:53:00
6:49 PM,64.4,57.2,77,30.23,10.0,ENE,17.3,-,N/A,,Overcast,70,2014-01-08 23:49:00
6:53 PM,64.0,57.0,78,30.22,10.0,ENE,16.1,-,N/A,,Overcast,70,2014-01-08 23:53:00
7:53 PM,64.0,57.9,80,30.25,10.0,East,10.4,-,N/A,,Overcast,80,2014-01-09 00:53:00
8:53 PM,64.0,59.0,84,30.26,10.0,East,12.7,-,N/A,,Overcast,80,2014-01-09 01:53:00
9:53 PM,63.0,60.1,90,30.26,10.0,ENE,11.5,-,0.00,Rain,Light Rain,60,2014-01-09 02:53:00
10:53 PM,63.0,60.1,90,30.25,9.0,ENE,10.4,-,0.00,Rain,Light Rain,70,2014-01-09 03:53:00
11:53 PM,63.0,61.0,93,30.23,10.0,ENE,12.7,-,0.04,,Mostly Cloudy,70,2014-01-09 04:53:00